Погода в Ярославле

Россия / Ярославская область     57°37′35″N   39°53′37″E
темп.,
°C
ветер,
м/с
пор.,
м/с
влажн.,
%
обл.,
%
осадки,
мм/ч
давл.,
гПа
погр.,
м
20 января, ср
ср2000:00−14з339694 0.1 101571
03:00−13з369697 0.4 1015121
06:00−12з369698 0.1 1014135
09:00−12з389698 0.3 1014187
12:00−10зсз489494 0.1 1015318
15:00−11з489597 0.1 1015273
18:00−14з369798 0.0 1017113
21:00−14з359795 0.1 101791
21 января, чт
чт2100:00−13з379695 0.1 1018201
03:00−13з379596 0.2 1018190
06:00−14зюз369599 0.0 1017134
09:00−15ююз349299 0.0 101694
12:00−13ююз3589100 0.0 1014249
15:00−11ю2495100 0.2 1013284
18:00−13ю2296100 0.2 101320
21:00−15ююз1196100 0.2 101420
22 января, пт
пт2200:00−16вюв1198100 0.0 101420
03:00−15вюв2295100 0.0 101523
06:00−14юв3495100 0.0 1014118
09:00−13юв4894100 0.0 1014216
12:00−10юв5994100 0.3 1013310
15:00−8ююв5994100 0.6 1013352
18:00−7юв5995100 0.1 1011293
21:00−6юв5896100 0.3 1011257
23 января, сб
сб2300:00−2ююв5997100 0.9 1010330
03:00+1ююз51098100 1.3 1008408
06:00+1ююз4999100 0.8 1007362
09:00+1юз4898100 0.9 1007323
12:00+1ю36100100 0.2 1007212
15:000ююз51099100 0.6 1007405
18:00+1ююз41099100 0.1 1007356
21:00+1юз5999100 0.2 1008296
24 января, вс
вс2400:00+1юз4897100 0.0 1009214
03:000ююз369786 0.0 1010131
06:00+1ю249789 0.0 1010137
09:00+1ю379994 0.0 1010227
12:00+1ю38100100 0.0 1010219
15:00+1ю410100100 0.0 1010314
18:00+1ююв4999100 0.0 1010288
21:00+1ююв51199100 0.0 1009342